Location: *
(44.1392°N, 4.8079°E)
Time: 21:39:48
(UTC+00:00)

IRIDIUM 114 - Pass Details

Date: 21 June 2021
Orbit: 776 x 779 km, 86.4° (Epoch: 02 August)

Event Time Altitude Azimuth Distance (km) Brightness Sun altitude
Rises 02:13:19 0° 354° (N) 3,272 8.4 -14.1°
Reaches altitude 10° 02:15:41 10° 352° (N) 2,339 7.5 -13.9°
Maximum altitude 02:20:53 70° 270° (W) 828 4.3 -13.3°
Enters shadow 02:25:22 14° 189° (S) 2,060 6.0 -12.8°
